Вернуться в каталог

FENGYUN 1C DEB

LostPO
NORAD 37414·DEBRIS·🇨🇳 China

Запущен May 10, 1999 с Taiyuan Satellite Launch Center

Loading…

Ближайшие Пролёты (ближайшие 24 часа)

TLE

УстаревшееSource: Space-Track

Эпоха: Aug 10, 2023, 07:06 UTC

1 37414U 99025EGG 23222.29594769  .00007063  00000-0  35041-2 0  9997
2 37414  98.0057 240.6673 0181153 341.8529  17.6232 14.09254505448900

Отслеживайте FENGYUN 1C DEB в реальном времени с AllMySat

Download on the App Store